N7MLR Weather Reports


time (UTC)temp
F
wind
direction
speed
knots
gust
knots
rain 1hr
in
rain 24hr
in
rain mn
in
humidity
%
barometer
mb
20260510045117 68 202 0.0 0.0 0.00 0.01 0.01 90 1010.8
20260510044614 69 202 0.0 0.0 0.00 0.01 0.01 90 1010.8
20260510044111 69 202 0.0 0.0 0.00 0.01 0.01 90 1010.9
20260510043606 69 202 0.0 0.0 0.00 0.01 0.01 89 1010.8
20260510043103 69 202 0.0 0.0 0.00 0.01 0.01 89 1010.9
20260510042601 69 202 0.0 0.0 0.00 0.01 0.01 89 1010.8
20260510042057 69 202 0.0 0.0 0.00 0.01 0.01 88 1010.8
20260510041554 69 202 0.0 0.0 0.00 0.01 0.01 88 1010.6
20260510041051 70 202 0.0 0.0 0.00 0.01 0.01 87 1010.8
20260510040548 70 202 0.0 0.0 0.00 0.01 0.01 87 1010.9
20260510040044 70 202 0.0 0.0 0.00 0.01 0.01 86 1010.7
20260510035540 70 202 0.0 0.0 0.00 0.01 0.01 86 1010.7
20260510035040 70 202 0.0 0.0 0.00 0.01 0.01 86 1010.8
20260510034539 71 202 0.0 0.0 0.00 0.01 0.01 85 1010.7
20260510034035 71 202 0.0 0.0 0.00 0.01 0.01 85 1010.6
20260510033531 71 202 0.0 0.0 0.00 0.01 0.01 84 1010.7
20260510033029 72 202 0.0 0.0 0.00 0.01 0.01 83 1010.3
20260510032525 72 202 0.0 0.0 0.00 0.01 0.01 81 1010.4
20260510032020 73 202 0.0 0.0 0.00 0.01 0.01 80 1010.2
20260510031516 73 202 0.9 0.9 0.00 0.01 0.01 79 1010.3
20260510031012 74 202 0.9 0.9 0.00 0.01 0.01 79 1010.2
20260510030508 73 202 0.9 0.9 0.00 0.01 0.01 79 1010.3
20260510030005 73 205 0.0 0.9 0.00 0.01 0.01 79 1010.1
20260510025502 73 205 0.0 0.0 0.00 0.01 0.01 79 1010.1
20260510024959 74 205 0.0 0.0 0.00 0.01 0.01 78 1010.1
20260510024450 74 205 0.0 0.0 0.00 0.01 0.01 77 1010.1
20260510023946 75 205 0.0 0.0 0.00 0.01 0.01 75 1009.9
20260510023443 75 205 0.0 0.0 0.00 0.01 0.01 74 1009.8
20260510022940 75 205 0.0 0.0 0.00 0.01 0.01 73 1009.8
20260510022439 76 205 0.0 0.0 0.00 0.01 0.01 72 1009.6
20260510021938 76 205 0.0 0.0 0.00 0.01 0.01 71 1009.9
20260510021436 77 205 0.0 0.0 0.00 0.01 0.01 69 1009.8
20260510020933 77 205 0.0 0.0 0.00 0.01 0.01 68 1009.7
20260510020427 78 205 0.0 0.0 0.00 0.01 0.01 66 1009.9
20260510015923 78 207 0.0 0.9 0.00 0.01 0.01 65 1009.8
20260510015419 79 205 0.9 0.9 0.00 0.01 0.01 63 1009.5
20260510014914 79 208 0.9 0.9 0.00 0.01 0.01 62 1009.5
20260510014412 80 209 0.9 0.9 0.00 0.01 0.01 61 1009.5
20260510013908 80 218 0.9 0.9 0.00 0.01 0.01 59 1009.2
20260510013403 80 212 0.0 0.9 0.00 0.01 0.01 58 1009.4
20260510012858 80 223 0.0 0.9 0.00 0.01 0.01 59 1009.2
20260510012354 79 240 0.0 0.9 0.00 0.01 0.01 60 1009.0
20260510011849 80 240 0.0 0.9 0.00 0.01 0.01 60 1009.2
20260510011344 80 240 0.0 0.0 0.00 0.01 0.01 60 1009.0
20260510010840 81 240 0.0 0.0 0.00 0.01 0.01 58 1008.9
20260510010338 81 240 0.0 0.0 0.00 0.01 0.01 57 1008.9
20260510005834 82 237 0.0 0.9 0.00 0.01 0.01 56 1008.7
20260510005331 82 236 1.7 1.7 0.00 0.01 0.01 54 1008.8
20260510004829 82 245 0.9 0.9 0.00 0.01 0.01 55 1008.7
20260510004326 83 230 0.0 0.0 0.00 0.01 0.01 59 1008.7
20260510003823 84 244 0.9 1.7 0.00 0.01 0.01 60 1008.5
20260510003320 85 235 0.9 0.9 0.00 0.01 0.01 60 1008.5
20260510002819 85 231 0.9 0.9 0.00 0.01 0.01 59 1008.5
20260510002316 86 244 0.9 1.7 0.00 0.01 0.01 58 1008.3
20260510001813 86 240 0.9 1.7 0.00 0.01 0.01 58 1008.3
20260510001311 86 233 0.9 0.9 0.00 0.01 0.01 58 1008.4
20260510000806 86 220 0.9 0.9 0.00 0.01 0.01 59 1008.0
20260510000305 85 239 0.9 1.7 0.00 0.01 0.01 60 1008.0
20260509235802 85 233 0.9 0.9 0.00 0.01 0.01 60 1008.0
20260509235258 85 238 0.0 0.9 0.00 0.01 0.01 59 1008.2
20260509234754 85 236 1.7 2.6 0.00 0.01 0.01 59 1008.0
20260509234250 85 244 0.9 0.9 0.00 0.01 0.01 59 1008.2
20260509233749 85 256 2.6 4.3 0.00 0.01 0.01 59 1008.0
20260509233246 85 238 0.9 0.9 0.00 0.01 0.01 61 1008.0
20260509232742 86 284 0.9 1.7 0.00 0.01 0.01 60 1008.0
20260509232240 86 249 1.7 1.7 0.00 0.01 0.01 60 1007.9
20260509231736 87 277 0.9 1.7 0.00 0.01 0.01 58 1008.2
20260509231233 86 214 0.9 1.7 0.00 0.01 0.01 59 1007.9
20260509230730 85 229 0.9 1.7 0.00 0.01 0.01 60 1008.0
20260509230227 85 228 0.0 0.9 0.00 0.01 0.01 61 1007.9
20260509225722 86 254 1.7 2.6 0.00 0.01 0.01 60 1008.0
20260509225218 85 223 0.9 0.9 0.00 0.01 0.01 60 1007.9
20260509224714 85 225 0.9 0.9 0.00 0.01 0.01 60 1008.2
20260509224211 85 209 1.7 1.7 0.00 0.01 0.01 58 1007.9
20260509223708 86 221 0.0 0.9 0.00 0.01 0.01 58 1008.2
20260509223205 87 224 0.9 1.7 0.00 0.01 0.01 56 1008.2
20260509222702 87 253 2.6 2.6 0.00 0.01 0.01 53 1007.9
20260509222158 88 179 0.9 0.9 0.00 0.01 0.01 50 1007.8
20260509221654 89 178 0.0 0.0 0.00 0.01 0.01 49 1007.8
20260509221149 90 178 0.0 0.0 0.00 0.01 0.01 49 1007.7
20260509220646 91 177 0.0 0.0 0.00 0.01 0.01 47 1008.0
20260509220142 91 177 0.0 0.0 0.00 0.01 0.01 46 1007.8
20260509215638 91 182 0.9 0.9 0.00 0.01 0.01 47 1008.0
20260509215135 91 196 0.0 0.9 0.00 0.01 0.01 49 1008.0
20260509214632 92 176 2.6 2.6 0.00 0.01 0.01 46 1008.2
20260509214129 92 187 0.9 0.9 0.00 0.01 0.01 46 1008.2
20260509213625 91 196 0.9 0.9 0.00 0.01 0.01 49 1008.0
20260509213121 91 197 0.9 0.9 0.00 0.01 0.01 49 1008.2
20260509212618 92 189 0.9 1.7 0.00 0.01 0.01 48 1008.2
20260509212110 93 188 1.7 1.7 0.00 0.01 0.01 45 1008.3
20260509211606 93 180 0.0 0.9 0.00 0.01 0.01 46 1008.2
20260509211103 93 166 0.9 1.7 0.00 0.01 0.01 47 1008.3
20260509210559 94 202 0.9 0.9 0.00 0.01 0.01 47 1008.5
20260509210056 93 167 1.7 1.7 0.00 0.01 0.01 47 1008.5
20260509205550 91 200 0.9 0.9 0.00 0.01 0.01 49 1008.6
20260509205045 91 185 0.9 1.7 0.00 0.01 0.01 50 1008.6
20260509204542 91 178 0.9 1.7 0.00 0.01 0.01 52 1008.6
20260509204038 91 147 0.9 1.7 0.00 0.01 0.01 52 1008.5
20260509203534 92 182 1.7 1.7 0.00 0.01 0.01 53 1008.7
20260509203033 91 191 0.0 0.0 0.00 0.01 0.01 52 1008.8
20260509202527 89 194 0.0 0.0 0.00 0.01 0.01 54 1008.9
20260509202023 89 198 0.9 0.9 0.00 0.01 0.01 53 1008.8
20260509201518 91 198 0.0 0.9 0.00 0.01 0.01 53 1008.9
20260509201015 91 208 0.9 0.9 0.00 0.01 0.01 54 1009.1
20260509200510 91 184 0.0 0.9 0.00 0.01 0.01 51 1009.1
20260509200007 92 178 0.0 0.9 0.00 0.01 0.01 53 1009.2
20260509195502 90 191 0.9 0.9 0.00 0.01 0.01 54 1009.4
20260509195001 90 191 0.9 1.7 0.00 0.01 0.01 55 1009.2
20260509194458 91 160 1.7 1.7 0.00 0.01 0.01 54 1009.3
20260509193955 91 176 0.9 1.7 0.00 0.01 0.01 52 1009.3
20260509193454 91 165 0.9 0.9 0.00 0.01 0.01 52 1009.6
20260509192951 90 200 0.0 0.9 0.00 0.01 0.01 55 1009.2
20260509192448 89 218 0.9 0.9 0.00 0.01 0.01 58 1009.7
20260509191943 87 219 0.9 0.9 0.00 0.01 0.01 62 1009.9
20260509191438 86 214 0.9 0.9 0.00 0.01 0.01 62 1010.1
20260509190934 87 194 0.0 0.0 0.00 0.01 0.01 60 1010.1
20260509190432 89 194 0.0 0.9 0.00 0.01 0.01 57 1010.4
20260509185930 90 175 0.9 0.9 0.00 0.01 0.01 56 1010.4
20260509185426 89 205 0.9 0.9 0.00 0.01 0.01 59 1010.3
20260509184923 90 191 0.9 0.9 0.00 0.01 0.01 58 1010.3
20260509184420 91 116 1.7 2.6 0.00 0.01 0.01 56 1010.4
20260509183917 88 183 0.9 0.9 0.00 0.01 0.01 61 1010.2
20260509183411 90 146 2.6 2.6 0.00 0.01 0.01 58 1010.4
20260509182908 90 161 1.7 1.7 0.00 0.01 0.01 58 1010.4
20260509182405 89 175 0.9 1.7 0.00 0.01 0.01 58 1010.6
20260509181902 89 179 1.7 1.7 0.00 0.01 0.01 60 1010.5
20260509181400 88 181 0.9 1.7 0.00 0.01 0.01 62 1010.7
20260509180857 86 191 0.0 0.9 0.00 0.01 0.01 64 1010.7
20260509180352 87 196 0.9 0.9 0.00 0.01 0.01 64 1010.9
20260509175850 87 197 0.9 0.9 0.00 0.01 0.01 64 1010.7
20260509175345 85 185 0.9 0.9 0.00 0.01 0.01 66 1010.9
20260509174841 86 184 1.7 1.7 0.00 0.01 0.01 66 1010.9
20260509174338 86 217 0.9 0.9 0.00 0.01 0.01 67 1010.8
20260509173834 86 132 1.7 1.7 0.00 0.01 0.01 66 1010.7
20260509173329 86 226 0.9 1.7 0.00 0.01 0.01 65 1010.9
20260509172825 85 161 1.7 2.6 0.00 0.01 0.01 69 1011.2
20260509172322 86 172 2.6 2.6 0.00 0.01 0.01 67 1011.3
20260509171819 85 220 0.9 0.9 0.00 0.01 0.01 68 1011.3
20260509171314 86 189 0.9 0.9 0.00 0.01 0.01 69 1011.2
20260509170811 86 165 1.7 1.7 0.00 0.01 0.01 68 1011.4
20260509170307 84 176 0.9 1.7 0.00 0.01 0.01 72 1011.2
20260509165806 83 180 0.9 1.7 0.00 0.01 0.01 74 1011.2
20260509165301 84 185 0.9 0.9 0.00 0.01 0.01 74 1011.4
20260509164757 83 189 0.9 0.9 0.00 0.01 0.01 75 1011.5
20260509164253 82 176 0.9 1.7 0.00 0.01 0.01 76 1011.4
20260509163750 81 195 0.9 0.9 0.00 0.01 0.01 78 1011.6
20260509163247 80 191 0.9 0.9 0.00 0.01 0.01 78 1011.4
20260509162746 81 193 0.0 0.0 0.00 0.01 0.01 78 1011.5
20260509162239 81 224 0.0 0.9 0.00 0.01 0.01 78 1011.2
20260509161736 82 229 0.9 1.7 0.00 0.01 0.01 78 1011.7
20260509161232 82 192 0.9 0.9 0.00 0.01 0.01 78 1011.7
20260509160727 79 181 0.0 0.0 0.00 0.01 0.01 83 1011.7
20260509160224 78 184 0.0 0.0 0.00 0.01 0.01 85 1011.8
20260509155718 78 185 0.9 0.9 0.00 0.01 0.01 84 1012.1
20260509155216 79 198 0.9 1.7 0.00 0.01 0.01 82 1011.7
20260509154712 77 215 0.9 0.9 0.00 0.01 0.01 86 1011.8
20260509154209 76 223 0.0 0.0 0.00 0.01 0.01 90 1012.1
20260509153706 76 223 0.0 0.9 0.00 0.01 0.01 90 1012.0
20260509153202 75 232 0.9 0.9 0.00 0.01 0.01 90 1011.5
20260509152658 75 231 0.0 0.0 0.00 0.01 0.01 91 1011.6
20260509152155 75 220 0.9 0.9 0.00 0.01 0.01 91 1011.7
20260509151652 75 194 0.0 0.0 0.00 0.01 0.01 91 1011.5
20260509151149 75 222 1.7 1.7 0.00 0.01 0.01 91 1011.4
20260509150647 75 182 0.9 1.7 0.00 0.01 0.01 93 1011.7
20260509150145 74 231 0.9 1.7 0.00 0.01 0.01 94 1011.3
20260509145641 74 265 1.7 1.7 0.00 0.01 0.01 94 1011.3
20260509145136 74 217 1.7 1.7 0.00 0.01 0.01 96 1011.4
20260509144633 73 208 1.7 2.6 0.00 0.01 0.01 97 1011.5
20260509144130 73 218 0.9 0.9 0.00 0.01 0.01 98 1011.6
20260509143627 72 190 0.9 0.9 0.00 0.01 0.01 99 1011.8
20260509143125 72 190 0.0 0.0 0.00 0.01 0.01 99 1011.6
20260509142620 71 191 0.0 0.0 0.00 0.01 0.01 99 1011.3
20260509142117 72 191 0.0 0.0 0.00 0.01 0.01 99 1011.3
20260509141613 72 191 0.9 0.9 0.00 0.01 0.01 99 1011.4
20260509141109 72 190 0.0 0.9 0.00 0.01 0.01 99 1011.5
20260509140606 72 189 0.9 1.7 0.00 0.01 0.01 99 1011.5
20260509140104 72 197 0.0 0.0 0.00 0.01 0.01 99 1011.6
20260509135601 72 196 0.0 0.9 0.00 0.01 0.01 99 1011.4
20260509135059 72 196 0.0 0.0 0.00 0.01 0.01 99 1011.4
20260509134555 71 197 0.0 0.0 0.00 0.01 0.01 99 1011.2
20260509134053 71 197 0.0 0.9 0.00 0.01 0.01 99 1011.2
20260509133550 71 197 0.0 0.0 0.00 0.01 0.01 99 1011.2
20260509133048 71 197 0.0 0.0 0.00 0.01 0.01 99 1011.2
20260509132546 71 197 0.0 0.0 0.00 0.01 0.01 99 1011.2
20260509132044 71 197 0.0 0.0 0.00 0.01 0.01 99 1011.2
20260509131539 71 196 0.0 0.0 0.00 0.01 0.01 99 1010.8
20260509131037 71 196 0.0 0.0 0.00 0.01 0.01 99 1011.2
20260509130532 71 197 0.0 0.0 0.00 0.01 0.01 99 1011.3
20260509130029 71 197 0.0 0.0 0.00 0.01 0.01 99 1011.3
20260509125526 71 196 0.9 0.9 0.00 0.01 0.01 99 1011.2
20260509125022 71 197 0.0 0.0 0.00 0.01 0.01 99 1011.2
20260509124519 72 196 0.0 0.0 0.00 0.01 0.01 99 1010.9
20260509124016 71 198 0.0 0.9 0.00 0.01 0.01 99 1010.9
20260509123514 71 198 0.9 0.9 0.00 0.01 0.01 99 1010.9
20260509123010 71 204 0.0 0.9 0.00 0.01 0.01 99 1010.8
20260509122507 71 225 0.0 0.9 0.00 0.01 0.01 99 1010.7
20260509122004 71 233 0.0 0.0 0.00 0.01 0.01 99 1010.9
20260509121500 71 225 0.0 0.0 0.00 0.01 0.01 99 1010.9
20260509120958 71 226 0.0 0.0 0.00 0.01 0.01 99 1011.2
20260509120456 71 209 0.0 0.0 0.00 0.01 0.01 99 1011.1
20260509115954 71 203 0.0 0.9 0.00 0.01 0.01 99 1011.1
20260509115451 71 170 1.7 2.6 0.00 0.01 0.01 99 1011.2
20260509114948 71 202 1.7 1.7 0.00 0.01 0.01 99 1010.9
20260509114446 71 190 0.9 0.9 0.00 0.01 0.01 99 1011.1
20260509113945 71 188 1.7 1.7 0.00 0.01 0.01 99 1011.3
20260509113442 71 184 0.9 1.7 0.00 0.01 0.01 99 1011.2
20260509112939 71 207 1.7 2.6 0.00 0.01 0.01 99 1011.3
20260509112437 71 206 0.9 0.9 0.00 0.01 0.01 99 1011.4
20260509111933 71 206 0.9 0.9 0.00 0.01 0.01 99 1011.5
20260509111431 71 213 0.9 1.7 0.00 0.01 0.01 99 1011.3
20260509110928 71 198 0.9 0.9 0.00 0.01 0.01 99 1011.4
20260509110423 71 207 0.9 1.7 0.00 0.01 0.01 99 1011.2
20260509105922 71 204 1.7 1.7 0.00 0.01 0.01 99 1011.2
20260509105420 71 193 0.9 0.9 0.00 0.01 0.01 99 1011.1
20260509104917 71 200 0.9 0.9 0.00 0.01 0.01 99 1010.7
20260509104414 71 193 0.0 0.9 0.00 0.01 0.01 99 1010.9
20260509103911 71 200 0.0 0.0 0.00 0.01 0.01 99 1010.8
20260509103408 71 200 0.0 0.0 0.00 0.01 0.01 99 1010.8
20260509102907 71 200 0.0 0.0 0.00 0.01 0.01 99 1010.8
20260509102404 71 200 0.0 0.0 0.00 0.01 0.01 99 1011.1
20260509101859 71 200 0.0 0.0 0.00 0.01 0.01 99 1011.1
20260509101355 71 200 0.0 0.0 0.05 0.01 0.01 99 1010.9
20260509100854 71 200 0.0 0.0 0.05 0.01 0.01 99 1010.7
20260509100350 71 200 0.9 0.9 0.00 0.00 0.00 99 1010.5
20260509095847 71 200 0.0 0.0 0.00 0.00 0.00 99 1010.3
20260509095345 71 200 0.9 0.9 0.00 0.00 0.00 99 1010.2
20260509094842 71 200 0.0 0.0 0.00 0.00 0.00 99 1010.4
20260509094338 71 200 0.0 0.0 0.00 0.00 0.00 99 1010.0
20260509093836 71 200 0.0 0.0 0.00 0.00 0.00 99 1010.2
20260509093332 71 200 0.0 0.9 0.00 0.00 0.00 99 1010.0
20260509092831 71 200 0.0 0.9 0.00 0.00 0.00 99 1010.3
20260509092329 72 200 0.0 0.9 0.00 0.00 0.00 99 1010.2
20260509091827 72 200 0.9 0.9 0.00 0.00 0.00 98 1010.4
20260509091323 72 200 0.9 0.9 0.00 0.00 0.00 98 1010.2
20260509090820 72 200 0.0 0.9 0.00 0.00 0.00 98 1010.0
20260509090318 72 200 0.0 0.0 0.00 0.00 0.00 98 1009.9
20260509085815 72 200 0.9 0.9 0.00 0.00 0.00 98 1010.1
20260509085313 72 200 0.0 0.0 0.00 0.00 0.00 99 1010.0
20260509084809 72 202 0.9 0.9 0.00 0.00 0.00 99 1009.9
20260509084306 72 227 0.0 0.9 0.00 0.00 0.00 99 1009.9
20260509083803 71 230 0.0 0.0 0.00 0.00 0.00 99 1010.1
20260509083300 71 230 0.0 0.0 0.00 0.00 0.00 99 1010.1
20260509082756 71 229 0.9 0.9 0.00 0.00 0.00 98 1010.3
20260509082253 71 229 0.0 0.0 0.00 0.00 0.00 98 1010.3
20260509081750 71 229 0.0 0.0 0.00 0.00 0.00 98 1010.2
20260509081248 71 229 0.0 0.0 0.00 0.00 0.00 98 1010.3
20260509080746 71 229 0.0 0.0 0.00 0.00 0.00 98 1010.1
20260509080243 71 229 0.0 0.0 0.00 0.00 0.00 98 1010.0
20260509075741 71 229 0.0 0.0 0.00 0.00 0.00 98 1010.2
20260509075238 72 230 0.9 0.9 0.00 0.00 0.00 98 1009.8
20260509074735 72 229 0.0 0.0 0.00 0.00 0.00 98 1009.9
20260509074233 72 229 0.0 0.0 0.00 0.00 0.00 98 1010.0
20260509073729 71 229 0.0 0.0 0.00 0.00 0.00 98 1010.1
20260509073225 72 229 0.0 0.0 0.00 0.00 0.00 98 1009.9
20260509072722 72 218 0.0 0.0 0.00 0.00 0.00 98 1010.0
20260509072219 72 218 0.0 0.0 0.00 0.00 0.00 97 1010.0
20260509071716 72 218 0.0 0.0 0.00 0.00 0.00 97 1009.9
20260509071213 72 218 0.0 0.9 0.00 0.00 0.00 97 1010.0
20260509070710 72 226 0.0 0.0 0.00 0.00 0.00 97 1010.0
20260509070206 72 215 0.0 0.0 0.00 0.00 0.00 97 1010.2
20260509065702 72 216 0.0 0.9 0.00 0.00 0.00 97 1010.1
20260509065158 72 227 0.0 0.0 0.00 0.00 0.00 96 1010.1
20260509064655 72 222 0.9 0.9 0.00 0.00 0.00 96 1010.2
20260509064153 72 222 0.9 0.9 0.00 0.00 0.00 96 1010.1
20260509063650 72 222 0.0 0.0 0.00 0.00 0.00 95 1010.4
20260509063146 72 201 0.9 0.9 0.00 0.00 0.00 94 1010.3
20260509062643 73 197 0.9 0.9 0.00 0.00 0.00 93 1010.5
20260509062141 73 203 0.0 0.0 0.00 0.00 0.00 92 1010.1
20260509061637 73 197 0.0 0.9 0.00 0.00 0.00 93 1010.2
20260509061135 72 198 0.9 0.9 0.00 0.00 0.00 95 1010.1
20260509060632 71 213 0.9 0.9 0.00 0.00 0.00 97 1010.1
20260509060128 71 204 0.9 0.9 0.00 0.00 0.00 97 1010.5
20260509055624 71 204 0.0 0.9 0.00 0.00 0.00 97 1010.4
20260509055120 71 204 0.0 0.9 0.00 0.00 0.00 97 1010.7
20260509054617 71 204 0.0 0.0 0.00 0.00 0.00 97 1010.8
20260509054115 71 209 0.9 0.9 0.00 0.00 0.00 97 1010.6
20260509053613 71 192 0.9 0.9 0.00 0.00 0.00 97 1010.5
20260509053109 71 194 0.0 0.9 0.00 0.00 0.00 97 1010.6
20260509052607 71 186 0.0 0.9 0.00 0.00 0.00 97 1010.8
20260509052105 71 186 0.0 0.0 0.00 0.00 0.00 97 1010.8
20260509051603 71 191 0.9 1.7 0.00 0.00 0.00 97 1010.9
20260509051059 71 188 0.9 0.9 0.00 0.00 0.00 97 1011.1
20260509050556 71 196 0.9 0.9 0.00 0.00 0.00 97 1010.9
20260509050052 71 197 0.0 0.0 0.00 0.00 0.00 97 1010.7
20260509045551 70 196 0.0 0.0 0.00 0.01 0.01 97 1010.6